EUTELSAT KONNECT

Last updated on Tue Oct 28 2025 00:02:51 GMT+0000 (Coordinated Universal Time)

1 45027U 20005B 25300.15580503 .00000061 00000+0 00000+0 0 9997 2 45027 0.0668 89.4206 0001164 164.8455 204.8182 1.00269201 21991
UTC large
Height (km)
Speed (km/s)
/
Latitude / Longitude
Inclination (degrees)
Orbital Period (minutes)
Azimuth
Elevation
Range (km)
Doppler Factor

Next 0 passes for location: London (51.5072 / 0.1276)

Sorry there are no passes over London.